Location: Cles
(46.3667°N, 11.0333°E)
Time: 17:10:56
(UTC+00:00)

Daily predictions for brighter satellites

Satellite Brightness Start Highest point End
(mag) Time Altitude Azimuth Time Altitude Azimuth Time Altitude Azimuth
Cosmos 1842 3.9 19:43:56 10° SSW 19:47:49 61° W 19:51:45 10° N
Cosmos 292 Rocket 3.8 19:43:31 10° S 19:48:16 61° ESE 19:53:02 10° NNE
IGS 5A 3.5 19:44:26 10° SSE 19:48:36 81° ENE 19:52:47 10° N
SL-16 R/B 2.2 19:44:46 10° SSW 19:50:22 65° ESE 19:55:59 10° NNE
Cosmos 2360 Rocket 3.0 19:45:57 10° SSE 19:50:48 30° ESE 19:55:39 10° NE
Cosmos 2322 Rocket 2.4 19:47:03 10° S 19:52:33 53° ESE 19:58:07 10° NE
Genesis I 3.2 19:49:23 10° SW 19:53:14 88° ESE 19:57:12 10° NE
Cosmos 1461 3.9 19:51:32 10° NNW 19:55:31 37° NE 19:59:19 10° ESE
Resurs 01 Rocket 1.7 19:51:11 10° SSE 19:55:35 82° WSW 20:00:01 10° NNW
USA 81 4.2 19:51:03 10° N 19:56:18 62° E 20:01:30 10° SSE
OBJECT-B 3.6 19:54:38 10° SW 19:56:42 16° W 19:58:47 10° NW
USA 245 4.4 19:53:26 10° SSE 19:58:06 55° ENE 20:03:43 10° N
Cosmos 1975 Rocket 3.6 19:58:53 10° SSE 20:02:57 41° E 20:07:05 10° NNE
Cosmos 1470 3.4 20:01:19 10° NNW 20:05:15 58° W 20:09:08 10° S
SPOT 5 3.8 20:02:29 10° SE 20:07:09 36° ENE 20:11:37 10° N
Meteor 1-21 4.4 20:01:30 10° SSW 20:07:11 82° WNW 20:12:50 10° N
Cosmos 1674 3.3 20:04:01 10° SSE 20:07:26 36° E 20:10:52 10° NNE
ATLAS CENTAUR R/B 3.2 20:03:55 10° NNW 20:07:28 24° NE 20:11:10 10° E
COSMOS 2428 4.5 20:06:39 10° SE 20:09:27 14° E 20:12:15 10° ENE
Cosmos 1980 Rocket 4.4 20:05:43 10° WSW 20:10:39 31° NW 20:15:37 10° N
Cosmos 2237 4.3 20:08:32 10° S 20:14:04 56° ESE 20:19:39 10° NE
Terra 3.0 20:10:29 10° SE 20:14:34 29° ENE 20:18:40 10° N
Cosmos 2278 Rocket 4.4 20:12:35 10° N 20:15:45 15° NE 20:18:53 10° ENE
Cosmos 1726 3.3 20:15:04 10° NNW 20:18:28 39° W 20:21:51 10° SSW
Lacrosse 5 2.6 20:15:36 10° WNW 20:20:24 43° SW 20:24:51 12° SSE
Cosmos 1315 Rocket 3.9 20:17:08 10° NNW 20:21:06 45° W 20:25:01 10° SSW
Cosmos 1452 Rocket 3.6 20:20:41 10° SSW 20:25:58 87° WNW 20:31:18 10° NNE
Cosmos 1844 Rocket 2.9 20:20:22 10° NNW 20:26:01 65° ENE 20:30:54 14° SE
SL-8 R/B 3.7 20:23:22 10° WNW 20:28:12 89° NE 20:32:59 10° ESE
Cosmos 2100 Rocket 4.1 20:24:04 10° N 20:30:28 74° E 20:36:23 12° SSE
ARIANE 5 R/B 2.6 20:29:10 13° SSE 20:33:06 78° ENE 20:37:36 10° N
NOSS 3-2 (C) 4.2 20:28:31 10° WSW 20:34:06 55° NW 20:40:37 10° NE
Cosmos 1340 3.8 20:32:11 16° SE 20:34:18 27° E 20:37:32 10° NE
Cosmos 1850 Rocket 4.1 20:30:16 10° NNW 20:35:35 76° WSW 20:40:12 14° SSE
FALCON 9 DEB 3.0 20:34:33 10° SW 20:37:58 72° SE 20:41:23 10° ENE
Cosmos 1908 3.2 20:34:04 10° N 20:37:58 78° E 20:40:58 16° SSE
ATLAS 3B R/B 3.1 20:32:18 10° S 20:38:12 38° ESE 20:44:17 10° NE
Cosmos 2263 Rocket 4.0 20:34:27 10° NW 20:38:56 24° WSW 20:43:25 10° SSW
SPOT 1/Viking Rocket 4.0 20:34:05 10° S 20:39:09 60° W 20:44:16 10° NNW
FALCON 9 DEB 4.0 20:40:01 20° SSE 20:40:50 22° SE 20:43:20 10° E
Geosat 4.0 20:37:26 15° SSE 20:41:35 89° SW 20:46:39 10° NNW
Spot 2 Rocket 3.6 20:40:28 12° S 20:45:06 74° WSW 20:50:12 10° NNW
Cosmos 1544 Rocket 3.7 20:40:40 10° N 20:45:08 66° E 20:48:22 18° SSE
CZ-2C R/B 4.4 20:40:36 10° N 20:45:18 59° WNW 20:49:59 10° SSW
Cosmos 2173 Rocket 4.1 20:42:03 10° N 20:48:28 89° W 20:54:11 13° S
Lacrosse 5 rocket 1.1 20:44:54 10° SSW 20:48:29 50° SE 20:51:59 10° ENE
ERS-1 Rocket 3.0 20:44:31 16° SSE 20:48:36 82° ENE 20:53:40 10° NNW
Cosmos 2333 4.5 20:44:14 10° S 20:49:44 50° ESE 20:55:15 10° NE
Cosmos 1331 Rocket 4.0 20:44:34 10° S 20:49:46 71° ESE 20:55:03 10° NNE
Cosmos 1455 Rocket 3.3 20:45:32 10° NNW 20:49:58 68° W 20:53:47 14° S
FALCON 9 DEB 3.9 20:50:01 25° SE 20:50:14 25° SE 20:52:52 10° E
Cosmos 2016 Rocket 4.0 20:45:30 10° N 20:51:35 66° ENE 20:56:18 18° SSE
BREEZE-M DEB (TANK) 1.7 20:57:57 10° SW 21:00:22 55° SSE 21:05:03 10° ENE
Cosmos 2333 Rocket 2.5 20:55:53 12° S 21:01:00 50° ESE 21:06:32 10° NE
USA 215 3.8 20:55:23 10° ENE 21:01:18 35° SE 21:07:11 10° SSW
Cosmos 1725 Rocket 4.0 20:57:33 10° N 21:03:45 71° E 21:08:13 20° SSE
Cosmos 1953 3.3 21:03:16 10° NNW 21:07:08 43° W 21:10:22 14° SSW
Cosmos 1626 2.2 21:04:14 15° SSW 21:07:10 74° W 21:10:52 10° N
Cosmos 1302 Rocket 4.2 21:04:49 17° S 21:08:41 53° ESE 21:13:47 10° NNE
Meteor 2-10 Rocket 4.3 21:06:08 10° N 21:10:51 36° ENE 21:13:41 20° SE
SL-14 R/B 3.2 21:08:37 21° S 21:11:14 76° E 21:15:16 10° NNE
Cosmos 2219 Rocket 2.4 21:07:37 16° S 21:12:04 53° ESE 21:17:35 10° NE
Cosmos 1844 3.8 21:07:26 10° NNW 21:12:58 70° WSW 21:16:41 22° SSE
Cosmos 1867 4.4 21:11:46 10° NNW 21:17:02 44° NE 21:21:11 16° ESE
Cosmos 1536 Rocket 3.5 21:15:05 22° S 21:17:56 74° E 21:22:24 10° NNE
CENTAUR R/B 4.5 21:12:28 10° W 21:18:11 34° NNW 21:24:51 10° NNE
Cosmos 1802 Rocket 4.3 21:12:22 10° NNW 21:18:36 68° W 21:23:38 16° S
CZ-4B DEB 4.3 21:19:02 33° S 21:20:19 73° W 21:23:29 10° NNW
Meteor 1-24 Rocket 3.8 21:21:07 24° SSE 21:24:16 57° E 21:29:38 10° NNE
DNEPR-1 R/B 3.4 21:20:09 10° NW 21:24:24 88° NE 21:26:37 29° SE
Cosmos 1025 Rocket 3.9 21:22:43 11° SSW 21:26:50 48° WNW 21:31:05 10° N
Cosmos 2237 Rocket 3.5 21:27:21 20° ESE 21:28:49 22° E 21:33:03 10° NE
Cosmos 389 Rocket 3.5 21:26:10 10° N 21:29:17 32° ENE 21:30:14 27° ESE
Cosmos 1461 4.3 21:30:52 10° WNW 21:34:26 27° WSW 21:36:05 20° SSW
Cosmos 2360 Rocket 3.2 21:29:11 10° SW 21:34:36 46° WNW 21:40:02 10° NNE
SL-16 R/B 4.5 21:30:19 10° WSW 21:34:57 25° NW 21:39:37 10° N
Cosmos 2228 3.4 21:30:47 10° N 21:35:05 51° ENE 21:36:56 30° SE
USA 267 4.0 21:29:18 10° E 21:35:36 52° NNE 21:41:54 10° NW
Cosmos 2322 Rocket 4.2 21:31:57 10° WSW 21:36:54 30° NW 21:41:53 10° N
Cosmos 1486 Rocket 4.2 21:37:20 10° NNW 21:42:33 65° ENE 21:45:12 28° SE
Cosmos 1455 3.5 21:41:14 10° NNE 21:44:37 29° ENE 21:45:44 25° ESE
SPOT 5 4.3 21:41:32 14° SSW 21:45:12 32° W 21:49:39 10° NNW
ATLAS CENTAUR R/B 1.8 21:42:20 10° NW 21:46:38 57° WSW 21:48:22 34° S
Cosmos 968 Rocket 3.4 21:45:56 10° NNW 21:51:04 84° WSW 21:53:28 32° SSE
Terra 2.9 21:49:22 19° SSW 21:52:12 36° W 21:56:36 10° NNW
COSMOS 2428 2.7 21:48:21 17° SSW 21:52:49 87° ESE 21:58:37 10° NNE
Cosmos 1300 3.6 21:49:20 10° NNW 21:52:56 41° W 21:54:30 27° SW
Cosmos 2322 4.0 21:49:06 10° SW 21:54:42 65° WNW 22:00:21 10° NNE
FALCON 9 DEB 2.7 21:54:51 48° SW 21:55:36 79° SE 21:58:44 10° ENE
Cosmos 1992 Rocket 4.1 21:54:03 32° S 21:56:20 58° ESE 22:01:29 10° NNE
Uosat 12 SS-18 rocket 4.1 21:54:41 24° SSW 21:57:17 78° SE 22:02:18 10° NE
Cosmos 2278 Rocket 2.4 21:55:21 10° NNW 22:01:00 64° ENE 22:04:01 28° SE
ATLAS CENTAUR R/B 3.7 21:59:32 27° SE 22:01:07 31° ESE 22:10:00 10° NE
Cosmos 2058 Rocket 3.8 22:01:33 10° N 22:05:49 42° ENE 22:07:18 31° ESE
Cosmos 1844 Rocket 4.5 22:05:14 10° NW 22:09:24 21° W 22:12:33 14° SW
SL-8 R/B 4.5 22:06:09 10° W 22:10:25 33° SW 22:10:57 32° SSW
Cosmos 1346 Rocket 2.9 22:11:16 38° SSW 22:12:42 71° WNW 22:16:44 10° N
Cosmos 1726 Rocket 3.5 22:08:56 10° N 22:13:26 83° E 22:14:53 43° SSE
Cosmos 2233 Rocket 4.4 22:07:45 10° NNW 22:13:44 54° W 22:17:18 24° SSW
GEOS 3 Rocket 3.6 22:11:17 32° SSE 22:13:51 80° SW 22:19:15 10° NW
FALCON 9 DEB 3.5 22:13:11 10° WSW 22:16:15 55° NNW 22:19:18 10° NE
FALCON 9 DEB 3.2 22:18:01 20° WSW 22:20:01 64° NNW 22:23:08 10° NE
NOSS 0 Rocket 3.9 22:16:43 28° SSW 22:20:09 73° ESE 22:26:23 10° NNE
SL-4 R/B 2.9 22:22:18 30° E 22:22:18 30° E 22:24:39 10° ENE
Cosmos 1513 Rocket 4.4 22:17:34 10° N 22:23:41 76° E 22:26:34 33° SSE
FALCON 9 DEB 3.7 22:22:40 10° WSW 22:25:42 50° NNW 22:28:45 10° NE
Lacrosse 5 rocket 3.1 22:24:29 10° W 22:27:42 29° NNW 22:30:53 10° NE
Cosmos 1606 Rocket 4.0 22:23:25 10° NNW 22:27:48 55° W 22:29:16 37° SSW
ATLAS 3B R/B 3.3 22:22:16 10° WSW 22:28:41 53° NW 22:35:21 10° NNE
Cosmos 1892 Rocket 3.5 22:29:33 44° S 22:30:55 88° W 22:35:23 10° N
SJ 16-02 3.4 22:28:23 10° N 22:31:43 21° ENE 22:34:22 13° E
ALOS 2 2.6 22:32:40 44° SSE 22:33:59 75° ENE 22:38:23 10° N
Cosmos 1980 3.6 22:35:59 33° SSW 22:38:41 82° ESE 22:44:24 10° NNE
Cosmos 1441 Rocket 3.3 22:38:21 53° SE 22:38:49 57° E 22:42:35 10° NNE
Meteor 2-1 Rocket 4.1 22:34:25 10° N 22:39:59 84° E 22:42:13 38° SSE
Cosmos 1703 3.3 22:39:40 55° SE 22:40:15 64° E 22:44:11 10° NNE
Cosmos 1943 Rocket 3.7 22:35:41 10° N 22:40:30 30° NE 22:45:01 11° ESE
Spot 4 4.1 22:39:08 38° SSW 22:40:44 56° W 22:45:27 10° NNW
Cosmos 1503 Rocket 4.1 22:36:33 10° NNW 22:41:56 71° WSW 22:43:52 40° S
USA 215 3.3 22:38:08 10° NE 22:44:41 78° NNW 22:51:13 10° WSW
Cosmos 2333 Rocket 3.9 22:40:27 10° WSW 22:45:31 31° NW 22:50:35 10° NNE
SAR-Lupe-2 3.8 22:46:47 10° NNE 22:50:19 53° E 22:50:27 53° ESE
Cosmos 1328 3.9 22:52:30 51° ESE 22:52:57 54° E 22:56:47 10° NNE
Cosmos 2219 Rocket 3.9 22:51:23 10° WSW 22:56:19 30° NW 23:01:16 10° N
Cosmos 1464 Rocket 4.2 22:52:50 10° NNW 22:59:08 67° W 23:02:03 33° SSW
Cosmos 1867 4.4 22:55:35 10° NW 23:00:33 36° WSW 23:01:49 32° SW
Cosmos 1626 Rocket 3.6 22:59:58 49° SSE 23:01:00 67° E 23:05:25 10° NNE
Cosmos 1607 4.0 22:56:07 10° NW 23:02:28 66° WSW 23:05:04 36° S
Thor Agena Rocket 3.8 22:57:49 10° NNE 23:03:00 55° ESE 23:04:38 39° SSE
Cosmos 2346 Rocket 4.5 23:00:49 34° SSW 23:03:41 78° W 23:09:52 10° N
Cosmos 1602 Rocket 3.9 23:06:53 45° SE 23:07:54 57° E 23:12:19 10° NNE
SL-16 R/B 2.6 23:06:18 36° SSE 23:08:00 48° ESE 23:13:27 10° NE
PSLV R/B 4.3 23:04:57 10° NNE 23:09:03 40° E 23:09:53 36° SE
Cosmos 1634 Rocket 4.5 23:02:54 10° N 23:09:05 53° ENE 23:12:24 27° SE
Cosmos 2237 Rocket 2.5 23:09:09 25° SW 23:12:23 61° WNW 23:17:59 10° NNE
MTI 3.9 23:11:19 10° N 23:14:12 61° WNW 23:14:12 61° WNW
Cosmos 1758 Rocket 4.3 23:14:18 35° SE 23:15:20 40° E 23:19:29 10° NNE
Meteor 1-4 Rocket 2.3 23:13:09 10° NNW 23:16:39 81° W 23:16:45 80° SW
GRACE-FO 1 4.5 23:14:08 10° N 23:17:56 89° E 23:18:22 69° S
USA 267 3.2 23:14:47 27° SSE 23:18:31 67° SW 23:25:02 10° NW
Cosmos 1816 Rocket 4.4 23:17:16 35° SSW 23:20:00 81° W 23:26:10 10° N
Cosmos 1455 3.9 23:17:07 10° NW 23:20:02 21° W 23:20:36 20° WSW
Cosmos 2369 Rocket 3.6 23:17:53 10° NNW 23:23:04 34° NE 23:28:14 10° ESE
Cosmos 1777 Rocket 4.1 23:26:32 10° NNW 23:31:46 62° WSW 23:33:25 41° SSW
Cosmos-2242 3.4 23:27:40 10° N 23:32:01 57° ENE 23:33:23 39° SE
NOSS 2-3 (C) 4.2 23:31:45 36° SE 23:32:02 37° ESE 23:36:19 10° NE
Cosmos 2034 Rocket 4.4 23:27:12 10° NNW 23:33:09 51° W 23:35:44 32° SSW
Cosmos 1408 3.8 23:37:17 29° ESE 23:37:47 30° E 23:41:03 10° NNE
Cosmos 2297 3.6 23:38:23 10° NNW 23:44:02 81° WSW 23:46:31 35° SSE
Cosmos 1812 Rocket 3.6 23:40:02 10° NNW 23:44:20 63° W 23:45:17 48° SSW
Cosmos 2278 Rocket 3.7 23:40:24 10° NW 23:44:33 21° W 23:45:51 20° WSW
Meteor 1-11 4.2 23:44:20 37° SSW 23:46:37 77° W 23:52:14 10° N
Meteor 1-27 4.2 23:42:21 10° N 23:47:57 82° ENE 23:50:26 35° SSE
Cosmos 724 4.3 23:42:02 10° NW 23:48:12 69° WSW 23:50:58 33° SSE
